DW4946 Weather Reports


time (UTC)temp
C
wind
direction
speed
KPH
gust
KPH
rain 1hr
cm
rain 24hr
cm
rain mn
cm
humidity
%
barometer
mb
20260504204606 30 0.0 0.0 0.00 0.00 0.00 50 1014.5
20260504204053 28 0.0 0.0 0.00 0.00 0.00 51 1014.6
20260504203554 28 0.0 0.0 0.00 0.00 0.00 51 1014.6
20260504203051 28 0.0 0.0 0.00 0.00 0.00 51 1014.6
20260504202549 31 0.0 0.0 0.00 0.00 0.00 47 1014.7
20260504202047 30 0.0 0.0 0.00 0.00 0.00 57 1014.7
20260504201548 29 0.0 0.0 0.00 0.00 0.00 52 1014.8
20260504201045 28 0.0 0.0 0.00 0.00 0.00 50 1014.9
20260504200548 29 0.0 0.0 0.00 0.00 0.00 48 1015.0
20260504200046 30 0.0 0.0 0.00 0.00 0.00 49 1014.9
20260504195540 29 0.0 0.0 0.00 0.00 0.00 46 1015.0
20260504195039 28 0.0 0.0 0.00 0.00 0.00 52 1015.1
20260504194542 28 0.0 0.0 0.00 0.00 0.00 51 1015.1
20260504194038 30 0.0 0.0 0.00 0.00 0.00 50 1015.2
20260504193535 31 0.0 0.0 0.00 0.00 0.00 54 1015.3
20260504193033 30 0.0 0.0 0.00 0.00 0.00 49 1015.4
20260504192532 30 0.0 0.0 0.00 0.00 0.00 50 1015.5
20260504192030 30 0.0 0.0 0.00 0.00 0.00 48 1015.5
20260504191530 30 0.0 0.0 0.00 0.00 0.00 46 1015.4
20260504191030 29 0.0 0.0 0.00 0.00 0.00 48 1015.5
20260504190529 28 0.0 0.0 0.00 0.00 0.00 52 1015.6
20260504190030 28 0.0 0.0 0.00 0.00 0.00 50 1015.7
20260504185523 28 0.0 0.0 0.00 0.00 0.00 53 1015.9
20260504185022 28 0.0 0.0 0.00 0.00 0.00 48 1015.8
20260504184530 28 0.0 0.0 0.00 0.00 0.00 52 1016.0
20260504184019 28 0.0 0.0 0.00 0.00 0.00 53 1016.0
20260504183518 28 0.0 0.0 0.00 0.00 0.00 51 1016.2
20260504183016 29 0.0 0.0 0.00 0.00 0.00 49 1016.4
20260504182514 30 0.0 0.0 0.00 0.00 0.00 51 1016.5
20260504182013 28 0.0 0.0 0.00 0.00 0.00 48 1016.8
20260504181513 29 0.0 0.0 0.00 0.00 0.00 49 1016.7
20260504181010 30 0.0 0.0 0.00 0.00 0.00 48 1016.9
20260504180510 29 0.0 0.0 0.00 0.00 0.00 47 1016.9
20260504180008 30 0.0 0.0 0.00 0.00 0.00 48 1016.9
20260504175507 29 0.0 0.0 0.00 0.00 0.00 49 1016.8
20260504175004 30 0.0 0.0 0.00 0.00 0.00 55 1016.9
20260504174503 29 0.0 0.0 0.00 0.00 0.00 49 1017.0
20260504174003 29 0.0 0.0 0.00 0.00 0.00 49 1017.1
20260504173502 28 0.0 0.0 0.00 0.00 0.00 52 1017.1
20260504173004 29 0.0 0.0 0.00 0.00 0.00 51 1017.1
20260504172559 28 0.0 0.0 0.00 0.00 0.00 52 1017.2
20260504172058 28 0.0 0.0 0.00 0.00 0.00 52 1017.1
20260504171557 29 0.0 0.0 0.00 0.00 0.00 51 1017.3
20260504171055 29 0.0 0.0 0.00 0.00 0.00 50 1017.3
20260504170553 29 0.0 0.0 0.00 0.00 0.00 49 1017.4
20260504151020 25 0.0 0.0 0.00 0.00 0.00 61 1018.3
20260504150519 24 0.0 0.0 0.00 0.00 0.00 61 1018.3
20260504141003 23 0.0 0.0 0.00 0.00 0.00 69 1018.1
20260504140504 23 0.0 0.0 0.00 0.00 0.00 69 1018.1
20260504130544 20 0.0 0.0 0.00 0.00 0.00 81 1017.8
20260504110509 16 0.0 0.0 0.00 0.00 0.00 88 1017.1
20260504100551 16 0.0 0.0 0.00 0.00 0.00 88 1016.9
20260504081536 17 0.0 0.0 0.00 0.00 0.00 87 1016.6
20260504081018 17 0.0 0.0 0.00 0.00 0.00 87 1016.6
20260504080517 17 0.0 0.0 0.00 0.00 0.00 87 1016.7
20260504050525 18 0.0 0.0 0.00 0.03 0.00 85 1017.2
20260504050023 18 0.0 0.0 0.00 0.03 0.00 85 1017.3
20260504045521 18 0.0 0.0 0.00 0.03 0.00 85 1017.8
20260504045021 18 0.0 0.0 0.00 0.03 0.00 85 1018.0
20260504044521 18 0.0 0.0 0.00 0.03 0.00 85 1018.2
20260504044018 18 0.0 0.0 0.00 0.03 0.00 85 1018.2
20260504043516 18 0.0 0.0 0.00 0.03 0.00 85 1018.4
20260504043029 18 0.0 0.0 0.00 0.03 0.00 84 1018.5
20260504042512 18 0.0 0.0 0.00 0.03 0.00 84 1018.4
20260504042014 18 0.0 0.0 0.00 0.03 0.00 84 1018.4
20260504041510 19 0.0 0.0 0.00 0.03 0.00 84 1018.3
20260504041008 19 0.0 0.0 0.00 0.03 0.00 84 1018.4
20260504040508 19 0.0 0.0 0.00 0.03 0.00 83 1018.6
20260504040007 19 0.0 0.0 0.00 0.03 0.00 82 1018.6
20260504035605 19 0.0 0.0 0.00 0.03 0.03 82 1018.6
20260504035004 20 0.0 0.0 0.00 0.03 0.03 81 1018.6
20260504034501 20 0.0 0.0 0.00 0.03 0.03 81 1018.5
20260504034100 20 0.0 0.0 0.00 0.03 0.03 81 1018.5
20260504033558 20 0.0 0.0 0.00 0.03 0.03 81 1018.4
20260504033102 20 0.0 0.0 0.00 0.03 0.03 81 1018.4
20260504032556 20 0.0 0.0 0.00 0.03 0.03 80 1018.4
20260504032054 20 0.0 0.0 0.00 0.03 0.03 80 1018.4
20260504031553 20 0.0 0.0 0.00 0.03 0.03 80 1018.3
20260504031051 20 0.0 0.0 0.00 0.03 0.03 80 1018.2
20260504030550 20 0.0 0.0 0.00 0.03 0.03 79 1018.1
20260504030048 20 0.0 0.0 0.00 0.03 0.03 79 1018.1
20260504025547 20 0.0 0.0 0.00 0.05 0.03 79 1018.2
20260504025048 21 0.0 0.0 0.00 0.05 0.03 79 1018.3
20260504024548 21 0.0 0.0 0.00 0.05 0.03 78 1018.1
20260504024046 21 0.0 0.0 0.00 0.05 0.03 78 1018.1
20260504023541 21 0.0 0.0 0.00 0.05 0.03 78 1018.2
20260504023040 21 0.0 0.0 0.00 0.05 0.03 77 1018.2
20260504022538 21 0.0 0.0 0.00 0.05 0.03 77 1017.8
20260504022038 21 0.0 0.0 0.00 0.05 0.03 78 1017.9
20260504021536 21 0.0 0.0 0.00 0.05 0.03 78 1017.8
20260504021037 21 0.0 0.0 0.00 0.05 0.03 77 1017.7
20260504020532 21 0.0 0.0 0.00 0.05 0.03 78 1017.7
20260504020043 21 0.0 0.0 0.00 0.05 0.03 78 1017.6
20260504015530 21 0.0 0.0 0.00 0.05 0.03 78 1017.6
20260504015029 21 0.0 0.0 0.00 0.05 0.03 77 1017.6
20260504014537 21 0.0 0.0 0.00 0.05 0.03 78 1017.5
20260504014025 21 0.0 0.0 0.00 0.05 0.03 78 1017.5
20260504013523 21 0.0 0.0 0.00 0.05 0.03 77 1017.5
20260504013033 21 0.0 0.0 0.00 0.05 0.03 77 1017.4
20260504012521 22 0.0 0.0 0.00 0.05 0.03 77 1017.4
20260504012020 22 0.0 0.0 0.00 0.05 0.03 76 1017.3
20260504011521 22 0.0 0.0 0.00 0.05 0.03 76 1017.2
20260504011016 22 0.0 0.0 0.00 0.05 0.03 76 1017.2
20260504010516 22 0.0 0.0 0.00 0.05 0.03 76 1017.1
20260504010014 22 0.0 0.0 0.00 0.05 0.03 76 1016.9
20260504005513 22 0.0 0.0 0.00 0.05 0.03 76 1017.0
20260504005014 22 0.0 0.0 0.00 0.05 0.03 76 1016.9
20260504004510 22 0.0 0.0 0.00 0.05 0.03 75 1016.8
20260504004008 22 0.0 0.0 0.00 0.05 0.03 75 1016.8
20260504003507 22 0.0 0.0 0.00 0.05 0.03 75 1016.6
20260504003007 22 0.0 0.0 0.00 0.05 0.03 75 1016.4
20260504002506 22 0.0 0.0 0.00 0.05 0.03 74 1016.3
20260504002002 23 0.0 0.0 0.00 0.05 0.03 74 1016.3
20260504001501 23 0.0 0.0 0.00 0.05 0.03 73 1016.3
20260504001102 23 0.0 0.0 0.00 0.05 0.03 72 1016.3
20260504000559 23 0.0 0.0 0.00 0.05 0.03 72 1016.3
20260504000108 23 0.0 0.0 0.00 0.05 0.03 71 1016.1
20260503235559 23 0.0 0.0 0.00 0.05 0.03 71 1016.2
20260503235054 23 0.0 0.0 0.00 0.05 0.03 70 1016.1
20260503234558 23 0.0 0.0 0.00 0.05 0.03 69 1016.0
20260503234051 24 0.0 0.0 0.00 0.05 0.03 69 1016.0
20260503233549 24 0.0 0.0 0.00 0.05 0.03 69 1016.0
20260503233048 24 0.0 0.0 0.00 0.05 0.03 68 1016.0
20260503232547 24 0.0 0.0 0.00 0.05 0.03 68 1015.9
20260503232045 25 0.0 0.0 0.00 0.05 0.03 67 1015.8
20260503231543 25 0.0 0.0 0.00 0.05 0.03 66 1015.8
20260503231042 25 0.0 0.0 0.00 0.05 0.03 67 1015.8
20260503230542 25 0.0 0.0 0.00 0.05 0.03 65 1015.9
20260503230053 25 0.0 0.0 0.00 0.05 0.03 65 1015.8
20260503225537 25 0.0 0.0 0.00 0.13 0.03 66 1015.8
20260503225036 25 0.0 0.0 0.00 0.13 0.03 68 1015.8
20260503224536 25 0.0 0.0 0.00 0.13 0.03 67 1015.8
20260503224034 25 0.0 0.0 0.00 0.13 0.03 66 1015.8
20260503223533 25 0.0 0.0 0.00 0.13 0.03 65 1015.8
20260503223031 25 0.0 0.0 0.00 0.13 0.03 63 1015.8
20260503222528 26 0.0 0.0 0.00 0.13 0.03 63 1015.8
20260503222027 26 0.0 0.0 0.00 0.13 0.03 62 1015.8
20260503221526 26 0.0 0.0 0.00 0.13 0.03 64 1016.0
20260503221025 25 0.0 0.0 0.00 0.13 0.03 64 1015.9
20260503220523 25 0.0 0.0 0.00 0.13 0.03 66 1015.8
20260503220022 26 0.0 0.0 0.00 0.13 0.03 64 1015.9
20260503215520 26 0.0 0.0 0.00 0.18 0.03 61 1015.8
20260503215019 26 0.0 0.0 0.00 0.18 0.03 65 1015.8
20260503214519 26 0.0 0.0 0.00 0.18 0.03 62 1015.9
20260503214016 26 0.0 0.0 0.00 0.18 0.03 61 1015.8
20260503213514 27 0.0 0.0 0.00 0.18 0.03 63 1015.8
20260503213013 27 0.0 0.0 0.00 0.18 0.03 61 1015.9
20260503212511 27 0.0 0.0 0.00 0.18 0.03 61 1015.9
20260503212010 27 0.0 0.0 0.00 0.18 0.03 61 1015.9
20260503211509 27 0.0 0.0 0.00 0.18 0.03 62 1015.8
20260503211007 27 0.0 0.0 0.00 0.18 0.03 62 1015.8
20260503210506 26 0.0 0.0 0.00 0.18 0.03 61 1015.9
20260503210005 26 0.0 0.0 0.00 0.18 0.03 65 1016.0
20260503205503 26 0.0 0.0 0.00 0.28 0.03 63 1016.1
20260503205003 28 0.0 0.0 0.00 0.28 0.03 58 1016.0